Location: Platte
(43.3870°N, 98.8440°W)
Time: 22:08:16
(UTC-05:00)

Landsat 7 - Visible Passes

Search period start: 29 June 2016 00:00
Search period end: 09 July 2016 00:00
Orbit: 701 x 703 km, 98.2° (Epoch: 29 June)

Date Brightness Start Highest point End Pass type
(mag) Time Alt. Az. Time Alt. Az. Time Alt. Az.
29 Jun 6.2 00:45:05 10° WSW 00:47:09 13° W 00:49:13 10° WNW visible
29 Jun 5.3 22:10:35 10° ESE 22:14:14 22° ENE 22:17:54 10° NNE visible
29 Jun 4.7 23:49:13 24° SSW 23:51:42 43° W 23:56:15 10° NNW visible
30 Jun 4.1 22:53:36 20° SE 22:56:42 55° ENE 23:01:21 10° N visible
01 Jul 6.0 00:32:29 12° WSW 00:34:47 17° W 00:37:51 10° NW visible
01 Jul 5.6 21:59:02 10° ESE 22:02:08 18° ENE 22:05:16 10° NNE visible
01 Jul 4.2 23:36:52 26° S 23:39:26 57° W 23:44:09 10° NNW visible
02 Jul 4.5 22:41:15 17° SE 22:44:32 42° ENE 22:49:01 10° N visible
03 Jul 5.7 00:20:09 16° SW 00:22:26 22° W 00:26:08 10° NW visible
03 Jul 5.9 21:47:42 10° E 21:50:04 14° ENE 21:52:28 10° NNE visible
03 Jul 3.9 23:24:32 26° S 23:27:12 76° WSW 23:31:59 10° NNW visible
04 Jul 4.8 22:28:55 14° SE 22:32:23 32° ENE 22:36:36 10° N visible
05 Jul 5.3 00:07:49 19° SW 00:10:07 29° W 00:14:15 10° NW visible
05 Jul 3.8 23:12:12 25° SSE 23:14:58 83° ENE 23:19:45 10° NNW visible
06 Jul 6.3 00:52:09 10° WSW 00:53:19 11° W 00:54:29 10° WNW visible
06 Jul 5.2 22:16:36 11° ESE 22:20:16 25° ENE 22:24:09 10° N visible
06 Jul 4.9 23:55:29 23° SSW 23:57:49 37° W 00:02:15 10° NNW visible
07 Jul 3.9 22:59:53 23° SSE 23:02:46 63° ENE 23:07:29 10° N visible
08 Jul 6.1 00:38:46 11° WSW 00:40:55 15° W 00:43:34 10° WNW visible
08 Jul 5.5 22:04:45 10° ESE 22:08:10 20° ENE 22:11:34 10° NNE visible
08 Jul 4.4 23:43:10 26° SSW 23:45:32 49° W 23:50:10 10° NNW visible
